Hourly Data Report for October 12, 2016

All times are specified in Local Standard Time (LST). Add 1 hour to adjust for Daylight Saving Time where and when it is observed.

SAINT JOHN A
NEW BRUNSWICK

45°18'58.000" N
65°53'24.000" W
108.80 m
8104901
71609
YSJ

Download Data

Hourly Data (October 2016)
Hourly Data Report for October 12, 2016
Temp Definition
°C
Dew Point Temp Definition
°C
Rel Hum Definition
%
Wind Dir Definition
10's deg

Wind Spd Definition
km/h
Visibility Definition
km
Stn Press Definition
kPa
Hmdx Definition


Wind Chill Definition


Weather Definition


TIME
00:00 Legend Double Dagger 1.3 1.3 100 3 3 24.1 101.59     LegendNANA
01:00 Legend Double Dagger 1.2 1.2 100 4 4 16.1 101.60     LegendNANA
02:00 Legend Double Dagger 0.1 0.1 100 36 1 8.1 101.59     Fog
03:00 Legend Double Dagger 0.3 0.3 100 2 3 1.2 101.59     Fog
04:00 Legend Double Dagger 0.1 0.1 100 1 3 0.8 101.59     Fog
05:00 Legend Double Dagger 1.0 1.0 100 36 2 0.8 101.58     Fog
06:00 Legend Double Dagger 0.2 0.2 100 36 2 0.8 101.61     Fog
07:00 Legend Double Dagger 0.7 0.7 100 36 2 0.6 101.63     Fog
08:00 Legend Double Dagger 4.9 4.9 100 36 1 0.6 101.64     Fog
09:00 Legend Double Dagger 10.9 10.9 100 18 13 24.1 101.66     LegendNANA
10:00 Legend Double Dagger 12.7 10.8 88 20 18 24.1 101.67     LegendNANA
11:00 Legend Double Dagger 13.5 9.0 74 19 18 24.1 101.66     Cloudy
12:00 Legend Double Dagger 14.6 8.2 65 21 20 24.1 101.63     LegendNANA
13:00 Legend Double Dagger 15.1 5.4 52 20 16 24.1 101.56     LegendNANA
14:00 Legend Double Dagger 15.3 2.2 41 22 21 24.1 101.54     Mostly Cloudy
15:00 Legend Double Dagger 15.4 2.3 41 19 22 24.1 101.49     LegendNANA
16:00 Legend Double Dagger 14.9 1.9 41 21 17 24.1 101.44     LegendNANA
17:00 Legend Double Dagger 12.8 4.8 58 20 10 24.1 101.41     Mostly Cloudy
18:00 Legend Double Dagger 9.8 5.0 72 20 6 24.1 101.40     LegendNANA
19:00 Legend Double Dagger 8.6 6.9 89 19 7 24.1 101.37     LegendNANA
20:00 Legend Double Dagger 6.8 6.8 100 21 4 24.1 101.35     Mostly Cloudy
21:00 Legend Double Dagger 7.9 7.9 100 21 6 24.1 101.34     LegendNANA
22:00 Legend Double Dagger 8.0 8.0 100 20 7 24.1 101.32     LegendNANA
23:00 Legend Double Dagger 9.5 9.5 100 19 8 24.1 101.30     Cloudy

Notes on Data Quality.

Legend

  • E = Estimated
  • M = Missing
  • NA = Not Available
  • ‡ = Partner data that is not subject to review by the National Climate Archives
Date modified: